EW6103 Weather Reports


Display with metric or nautical units.
time (UTC)temp
F
wind
direction
speed
MPH
gust
MPH
rain 1hr
in
rain 24hr
in
rain mn
in
humidity
%
barometer
mb
20260506044009 54 0 0.0 0.0 0.00 0.00 0.00 95 1006.1
20260506042008 53 180 0.0 0.0 0.00 0.00 0.00 95 1005.8
20260506041006 53 180 0.0 0.0 0.00 0.00 0.00 95 1005.6
20260506040013 53 180 0.0 1.0 0.00 0.00 0.00 95 1005.6
20260506035007 52 180 0.0 1.0 0.00 0.00 0.00 94 1005.5
20260506033010 53 270 0.0 2.0 0.00 0.00 0.00 93 1005.5
20260506032008 54 270 0.0 2.0 0.00 0.00 0.00 94 1005.5
20260506031008 54 270 2.0 3.0 0.00 0.00 0.00 94 1005.6
20260506025009 54 270 4.0 6.0 0.00 0.00 0.00 94 1005.5
20260506024008 53 225 2.0 4.0 0.00 0.00 0.00 93 1005.4
20260506023008 54 270 3.0 4.0 0.00 0.00 0.00 93 1005.2
20260506022011 54 270 2.0 4.0 0.00 0.00 0.00 92 1005.1
20260506020013 56 225 0.0 0.0 0.00 0.00 0.00 89 1004.6
20260506015008 56 270 2.0 4.0 0.00 0.00 0.00 89 1005.0
20260506014008 57 225 4.0 6.0 0.00 0.00 0.00 87 1005.2
20260506012008 58 270 4.0 5.0 0.00 0.00 0.00 83 1004.8
20260506011008 59 0 2.0 5.0 0.00 0.00 0.00 81 1004.8
20260506010012 59 0 2.0 4.0 0.00 0.00 0.00 80 1004.5
20260506005008 59 0 2.0 4.0 0.00 0.00 0.00 79 1004.6
20260506004008 59 0 3.0 6.0 0.00 0.00 0.00 79 1004.4
20260506003009 59 225 4.0 8.0 0.00 0.00 0.00 79 1004.7
20260506002008 60 0 4.0 9.0 0.00 0.00 0.00 79 1004.6
20260506001008 60 315 4.0 7.0 0.00 0.00 0.00 81 1004.7
20260506000016 59 270 4.0 6.0 0.00 0.00 0.00 77 1004.9
20260505235012 58 270 4.0 5.0 0.00 0.00 0.00 69 1004.8
20260505231009 61 180 1.0 3.0 0.00 0.00 0.00 60 1004.4
20260505230014 62 180 1.0 4.0 0.00 0.00 0.00 59 1004.4
20260505225007 63 180 3.0 5.0 0.00 0.00 0.00 57 1004.4
20260505224009 63 180 3.0 4.0 0.00 0.00 0.00 56 1004.4
20260505223015 63 180 2.0 4.0 0.00 0.00 0.00 56 1004.5
20260505222009 63 135 4.0 6.0 0.00 0.00 0.00 57 1003.4
20260505221009 63 0 4.0 9.0 0.00 0.00 0.00 57 1003.2
20260505220015 63 135 4.0 7.0 0.00 0.00 0.00 57 1003.1
20260505215008 62 135 4.0 6.0 0.00 0.00 0.00 59 1003.2
20260505214009 62 90 2.0 4.0 0.00 0.00 0.00 63 1003.4
20260505213009 62 90 2.0 4.0 0.00 0.00 0.00 64 1003.4
20260505212012 61 90 1.0 3.0 0.00 0.00 0.00 70 1003.3
20260505211010 61 90 1.0 2.0 0.00 0.00 0.00 71 1003.4
20260505210013 61 90 1.0 3.0 0.00 0.00 0.00 71 1003.3
20260505205008 62 180 1.0 3.0 0.00 0.00 0.00 71 1003.2
20260505204009 62 180 1.0 3.0 0.00 0.00 0.00 71 1003.3
20260505203009 61 225 1.0 2.0 0.00 0.00 0.00 72 1003.4
20260505202009 63 0 0.0 1.0 0.00 0.00 0.00 69 1003.2
20260505201008 62 135 1.0 3.0 0.00 0.00 0.00 69 1003.2
20260505200013 63 90 1.0 3.0 0.00 0.00 0.00 68 1003.2
20260505195007 63 45 0.0 2.0 0.00 0.00 0.00 66 1003.3
20260505194008 64 90 2.0 4.0 0.00 0.00 0.00 66 1003.4
20260505193007 65 0 2.0 4.0 0.00 0.00 0.00 65 1003.1
20260505191010 63 0 0.0 1.0 0.00 0.00 0.00 66 1003.3
20260505185009 65 45 2.0 4.0 0.00 0.00 0.00 63 1003.0
20260505184009 65 0 0.0 2.0 0.00 0.00 0.00 63 1003.0
20260505183011 66 0 2.0 4.0 0.00 0.00 0.00 61 1002.9
20260505182010 67 0 3.0 5.0 0.00 0.00 0.00 60 1003.0
20260505181010 67 0 8.0 11.0 0.00 0.00 0.00 58 1003.0
20260505180012 69 0 7.0 11.0 0.00 0.00 0.00 55 1002.8
20260505174008 71 90 0.0 1.0 0.00 0.00 0.00 45 1002.4
20260505173011 71 90 1.0 2.0 0.00 0.00 0.00 44 1002.4
20260505172009 72 90 1.0 2.0 0.00 0.00 0.00 44 1002.4
20260505171009 72 90 2.0 4.0 0.00 0.00 0.00 43 1002.5
20260505170012 73 90 2.0 4.0 0.00 0.00 0.00 42 1002.4
20260505165009 73 135 2.0 3.0 0.00 0.00 0.00 41 1002.4
20260505163011 74 90 3.0 5.0 0.00 0.00 0.00 38 1002.4
20260505162005 75 135 4.0 8.0 0.00 0.00 0.00 38 1002.4
20260505161008 76 135 4.0 7.0 0.00 0.00 0.00 37 1002.5
20260505153011 81 180 4.0 10.0 0.00 0.00 0.00 36 1002.2
20260505152011 81 180 4.0 9.0 0.00 0.00 0.00 37 1002.3
20260505151009 82 135 4.0 7.0 0.00 0.00 0.00 34 1002.2
20260505125009 79 90 2.0 4.0 0.00 0.00 0.00 35 1004.0
20260505124007 79 225 4.0 7.0 0.00 0.00 0.00 39 1004.2
20260505122010 78 180 4.0 7.0 0.00 0.00 0.00 36 1004.5
20260505121009 78 225 3.0 7.0 0.00 0.00 0.00 36 1004.5
20260505120014 77 225 3.0 7.0 0.00 0.00 0.00 37 1004.7
20260505115012 76 225 4.0 6.0 0.00 0.00 0.00 38 1004.7
20260505113011 77 135 3.0 10.0 0.00 0.00 0.00 38 1004.7
20260505112007 76 225 2.0 4.0 0.00 0.00 0.00 39 1005.0
20260505111008 74 180 2.0 4.0 0.00 0.00 0.00 39 1005.2
20260505102008 73 135 2.0 4.0 0.00 0.00 0.00 43 1006.0
20260505100017 73 135 3.0 10.0 0.00 0.00 0.00 40 1005.9
20260505095009 72 180 4.0 7.0 0.00 0.00 0.00 39 1006.0
20260505094009 71 180 4.0 10.0 0.00 0.00 0.00 41 1006.0
20260505093011 73 135 3.0 6.0 0.00 0.00 0.00 39 1006.1
20260505092009 71 180 3.0 7.0 0.00 0.00 0.00 42 1006.3
20260505091006 71 135 3.0 6.0 0.00 0.00 0.00 39 1006.3
20260505084009 70 135 3.0 6.0 0.00 0.00 0.00 41 1006.6
20260505083010 71 90 3.0 6.0 0.00 0.00 0.00 42 1006.7
20260505082009 70 90 2.0 6.0 0.00 0.00 0.00 43 1006.7
20260505081009 69 180 3.0 7.0 0.00 0.00 0.00 42 1007.0
20260505080015 69 135 4.0 8.0 0.00 0.00 0.00 44 1007.0
20260505075008 69 135 4.0 8.0 0.00 0.00 0.00 43 1007.1
20260505074007 68 90 4.0 6.0 0.00 0.00 0.00 44 1007.3
20260505073009 67 135 3.0 6.0 0.00 0.00 0.00 44 1007.5
20260505072009 67 90 4.0 7.0 0.00 0.00 0.00 44 1007.4
20260505071010 66 180 4.0 7.0 0.00 0.00 0.00 44 1007.6
20260505065008 64 180 4.0 9.0 0.00 0.00 0.00 45 1007.6
20260505063010 64 135 3.0 7.0 0.00 0.00 0.00 45 1007.6
20260505061009 62 90 3.0 6.0 0.00 0.00 0.00 49 1007.5
20260505060013 62 135 4.0 8.0 0.00 0.00 0.00 49 1007.4
20260505055008 62 135 4.0 7.0 0.00 0.00 0.00 48 1007.2
20260505053009 61 135 3.0 5.0 0.00 0.00 0.00 51 1007.5
20260505051008 59 90 4.0 7.0 0.00 0.00 0.00 50 1007.4